Torna al catalogo

STARLINK-36240

AttivoComunicazioniVLEO
NORAD 67076·PAYLOAD·🇺🇸 United States

Lanciato Dec 14, 2025 da Vandenberg Space Force Base

Loading…

Prossimi Passaggi (prossime 24 ore)

TLE

AggiornatoSource: CelesTrak SupGP

Epoca: Sep 14, 2026, 20:53 UTC

1 67076C 25298B   26257.87062500  .00072070  00000+0  60401-2 0  2577
2 67076  69.9994 257.4891 0003850 266.4501 113.6636 14.98289977    11

Traccia STARLINK-36240 in tempo reale con AllMySat

Download on the App Store